Location: Newark
(46.7636°N, 1.8358°W)
Time: 13:21:39
(UTC+00:00)

Vanguard 2 Rocket - Pass Details

Date: 20 October 2019
Orbit: 554 x 3326 km, 32.9° (Epoch: 17 November)

Event Time Altitude Azimuth Distance (km) Brightness Sun altitude
Rises 10:11:37 0° 241° (WSW) 6,716 11.3 28.7°
Reaches altitude 10° 10:15:58 10° 236° (WSW) 5,934 11.2 29.0°
Maximum altitude 10:34:19 50° 169° (S) 3,886 11.7 30.3°
Drops below altitude 10° 10:51:23 10° 102° (ESE) 5,565 11.4 31.3°
Sets 10:55:17 0° 97° (E) 6,292 11.5 31.5°
